Location: Newark
(45.5000°N, 11.4167°E)
Time: 07:16:50
(UTC+00:00)

Altair - All Passes

Search period start: 22 August 2019 00:00
Search period end: 01 September 2019 00:00
Orbit: 1501 x 1683 km, 47.2° (Epoch: 21 August)

Date Brightness Start Highest point End Pass type
(mag) Time Alt. Az. Time Alt. Az. Time Alt. Az.
22 Aug - 01:14:30 10° SSW 01:23:11 36° SE 01:31:36 10° ENE visible
22 Aug - 03:17:21 10° WSW 03:27:09 80° SSE 03:36:34 10° ENE visible
22 Aug - 05:22:28 10° W 05:32:08 81° N 05:41:27 10° E daylight
22 Aug - 07:27:35 10° WNW 07:36:59 75° SSW 07:46:07 10° ESE daylight
22 Aug - 09:32:53 10° WNW 09:40:37 31° SW 09:48:17 10° SSE daylight
23 Aug - 00:49:36 10° SSW 00:58:06 34° SE 01:06:21 10° ENE visible
23 Aug - 02:52:10 10° WSW 03:01:59 77° SSE 03:11:25 10° ENE visible
23 Aug - 04:57:13 10° W 05:06:55 81° N 05:16:16 10° E daylight
23 Aug - 07:02:22 10° WNW 07:11:50 78° SSW 07:21:02 10° ESE daylight
23 Aug - 09:07:36 10° WNW 09:15:36 34° SW 09:23:28 10° SSE daylight
24 Aug - 00:24:44 10° S 00:33:01 31° SE 00:41:04 10° ENE visible
24 Aug - 02:27:00 10° SW 02:36:49 74° SSE 02:46:15 10° ENE visible
24 Aug - 04:31:58 10° W 04:41:43 81° N 04:51:06 10° E daylight
24 Aug - 06:37:10 10° WNW 06:46:41 81° SSW 06:55:55 10° ESE daylight
24 Aug - 08:42:19 10° WNW 08:50:33 36° SW 08:58:37 10° SSE daylight
24 Aug - 23:59:54 10° S 00:07:58 29° SE 00:15:47 10° ENE visible
25 Aug - 02:01:50 10° SW 02:11:39 71° SSE 02:21:06 10° ENE visible
25 Aug - 04:06:43 10° W 04:16:31 81° N 04:25:55 10° E daylight
25 Aug - 06:11:57 10° WNW 06:21:32 84° SSW 06:30:47 10° ESE daylight
25 Aug - 08:17:04 10° WNW 08:25:29 39° SW 08:33:45 10° SSE daylight
25 Aug - 23:35:07 10° S 23:42:54 27° SE 23:50:28 10° E visible
26 Aug - 01:36:41 10° SW 01:46:30 67° SSE 01:55:56 10° ENE visible
26 Aug - 03:41:28 10° W 03:51:18 82° N 04:00:45 10° E visible
26 Aug - 05:46:44 10° WNW 05:56:22 86° SSW 06:05:39 10° ESE daylight
26 Aug - 07:51:49 10° WNW 08:00:25 42° SW 08:08:50 10° SSE daylight
26 Aug - 10:01:30 10° WSW 10:03:01 10° WSW 10:04:32 10° SW daylight
26 Aug - 23:10:23 10° S 23:17:51 24° SE 23:25:07 10° E visible
27 Aug - 01:11:34 10° SW 01:21:21 64° SSE 01:30:46 10° ENE visible
27 Aug - 03:16:14 10° W 03:26:06 83° N 03:35:34 10° E visible
27 Aug - 05:21:30 10° WNW 05:31:11 89° SSW 05:40:30 10° ESE daylight
27 Aug - 07:26:34 10° WNW 07:35:21 46° SW 07:43:55 10° SSE daylight
27 Aug - 09:34:49 10° W 09:38:03 12° WSW 09:41:17 10° SW daylight
27 Aug - 22:45:43 10° S 22:52:48 22° SE 22:59:43 10° E visible
28 Aug - 00:46:27 10° SW 00:56:12 61° SSE 01:05:36 10° ENE visible
28 Aug - 02:50:59 10° W 03:00:53 84° N 03:10:23 10° E visible
28 Aug - 04:56:18 10° WNW 05:06:00 89° N 05:15:21 10° ESE daylight
28 Aug - 07:01:20 10° WNW 07:10:16 49° SW 07:18:58 10° SSE daylight
28 Aug - 09:08:49 10° W 09:13:05 14° WSW 09:17:19 10° SSW daylight
28 Aug - 22:21:06 10° S 22:27:45 20° SE 22:34:16 10° E visible
29 Aug - 00:21:22 10° SW 00:31:03 58° SSE 00:40:25 10° ENE visible
29 Aug - 02:25:44 10° W 02:35:40 85° N 02:45:13 10° E visible
29 Aug - 04:31:03 10° WNW 04:40:49 87° NNE 04:50:11 10° ESE daylight
29 Aug - 06:36:06 10° WNW 06:45:11 52° SW 06:53:59 10° SE daylight
29 Aug - 08:43:03 10° W 08:48:06 16° SW 08:53:05 10° SSW daylight
29 Aug - 21:56:34 10° SSE 22:02:43 18° SE 22:08:45 10° E visible
29 Aug - 23:56:17 10° SW 00:05:55 54° SE 00:15:15 10° ENE visible
30 Aug - 02:00:29 10° WSW 02:10:27 87° NNW 02:20:03 10° ENE visible
30 Aug - 04:05:49 10° WNW 04:15:37 86° NNE 04:25:02 10° ESE daylight
30 Aug - 06:10:53 10° WNW 06:20:05 56° SW 06:29:00 10° SE daylight
30 Aug - 08:17:26 10° W 08:23:07 18° SW 08:28:43 10° SSW daylight
30 Aug - 21:32:08 10° SSE 21:37:41 16° SE 21:43:09 10° E visible
30 Aug - 23:31:13 10° SW 23:40:47 51° SE 23:50:04 10° ENE visible
31 Aug - 01:35:14 10° WSW 01:45:15 89° NNW 01:54:52 10° ENE visible
31 Aug - 03:40:34 10° W 03:50:25 84° N 03:59:51 10° E visible
31 Aug - 05:45:39 10° WNW 05:54:59 59° SSW 06:03:59 10° SE daylight
31 Aug - 07:51:53 10° W 07:58:07 20° SW 08:04:14 10° S daylight
31 Aug - 21:07:51 10° SSE 21:12:40 15° ESE 21:17:25 10° E visible
31 Aug - 23:06:11 10° SSW 23:15:39 48° SE 23:24:51 10° ENE visible
